Nenana, AK

11:00 PM AKDT en Junio 23, 2018 (GMT -0800)
Nenana Municipal

Tiempo Historia de PANN - Junio, 2018

Change the Weather History Date:

Miércoles, Junio 13, 2018

  Actual Average Record
Temperature  
Temperatura media 51 ° F -  
Temperatura máxima 68 ° F 75 ° F 79 ° F (2002)
Temperatura mínima 36 ° F 46 ° F 36 ° F (2018)
Degree Days  
Grados día de calefacción 14    
Growing Degree Days 1 (Base 50)    
Moisture  
Punto de rocío 38 ° F    
Average Humidity 63    
Maximum Humidity 100    
Minimum Humidity 27    
Precipitación  
Precipitación 0.16 pul - - ()
Presión al nivel del mar  
Presión al nivel del mar 29.87 pul    
Viento  
Velocidad del viento 2 mph (Este)    
Velocidad máxima del viento 9 mph    
Max Gust Speed -    
Visibilidad 10 Millas    
Eventos Lluvia    
Averages and records for this station are not official NWS values.
T = Trace of Precipitation, MM = Missing Value Source: NWS Daily Summary

Daily Weather History Graph

Daily Weather History Graph

Search for Another Location

Airport or City:

Astronomía

Jun. 13, 2018 Salida Puesta
Hora real 3:17 AM AKDT 12:36 AM AKDT
Crepúsculo civil Sun does not set Sun does not set
Crepúsculo náutico Sun does not set Sun does not set
Crepúsculo astronómico Sun does not set Sun does not set
Luna 4:35 AM AKDT (6/13) 11:49 PM AKDT (6/13)
Horas de luz 24h 00m
Horas de luz
21h 19m
Luna nueva, 0% of the Moon is Illuminated
Jun 13
Luna nueva
Jun 20
Cuarto creciente
Jun 27
Luna llena
Jul 5
Cuarto menguante
Jul 12
Nueva

Hourly Weather History & Observations

Hora (AKDT) Temp. Vientos helados Punto de rocío Humedad Presión Visibilidad Wind Dir Velocidad del viento Velocidad de ráfagas Precip Eventos Condiciones
12:53 AM 42.1 ° F - 39.0 ° F 89% 29.97 pul 10.0 mi Sin viento Sin viento - N/A   Despejado
1:53 AM 39.9 ° F - 37.0 ° F 89% 29.97 pul 10.0 mi Sin viento Sin viento - N/A   Despejado
2:53 AM 37.9 ° F - 36.0 ° F 93% 29.97 pul 10.0 mi Sin viento Sin viento - N/A   Despejado
3:53 AM 36.0 ° F - 33.1 ° F 89% 29.96 pul 10.0 mi Sin viento Sin viento - N/A   Despejado
4:53 AM 36.0 ° F - 34.0 ° F 93% 29.97 pul 2.5 mi Sin viento Sin viento - N/A   Despejado
5:03 AM 36.0 ° F - 34.0 ° F 93% 29.95 pul 10.0 mi Sin viento Sin viento - N/A   Despejado
5:53 AM 37.9 ° F 35.5 ° F 36.0 ° F 93% 29.96 pul 10.0 mi Este 3.5 mph - N/A   Despejado
6:53 AM 43.0 ° F 41.3 ° F 37.9 ° F 82% 29.96 pul 10.0 mi Este 3.5 mph - N/A   Despejado
7:53 AM 45.0 ° F 43.5 ° F 39.0 ° F 80% 29.95 pul 10.0 mi ESE 3.5 mph - N/A   Parcialmente nublado
8:53 AM 50.0 ° F - 39.0 ° F 66% 29.95 pul 10.0 mi Este 3.5 mph - N/A   Despejado
9:53 AM 55.0 ° F - 39.9 ° F 57% 29.94 pul 10.0 mi Variable 3.5 mph - N/A   Despejado
10:53 AM 59.0 ° F - 37.9 ° F 46% 29.91 pul 10.0 mi Variable 3.5 mph - N/A   Despejado
11:53 AM 61.0 ° F - 35.1 ° F 38% 29.89 pul 10.0 mi Sin viento Sin viento - N/A   Despejado
12:53 PM 63.0 ° F - 36.0 ° F 37% 29.88 pul 10.0 mi ENE 5.8 mph - N/A   Despejado
1:53 PM 64.0 ° F - 34.0 ° F 33% 29.86 pul 10.0 mi Sin viento Sin viento - N/A   Despejado
2:53 PM 66.9 ° F - 34.0 ° F 30% 29.84 pul 10.0 mi NNO 3.5 mph - N/A   Parcialmente nublado
3:53 PM 64.0 ° F - 35.1 ° F 34% 29.83 pul 10.0 mi Sin viento Sin viento - N/A   Muy nublado
4:53 PM 64.9 ° F - 34.0 ° F 32% 29.81 pul 10.0 mi ENE 4.6 mph - N/A   Muy nublado
5:53 PM 66.0 ° F - 30.9 ° F 27% 29.78 pul 10.0 mi Sin viento Sin viento - N/A   Muy nublado
6:53 PM 66.9 ° F - 36.0 ° F 32% 29.76 pul 10.0 mi Este 5.8 mph - N/A   Parcialmente nublado
7:53 PM 64.9 ° F - 35.1 ° F 33% 29.75 pul 10.0 mi SO 3.5 mph - N/A   Despejado
8:53 PM 66.0 ° F - 36.0 ° F 33% 29.73 pul 10.0 mi Sur 3.5 mph - N/A   Despejado
9:53 PM 59.0 ° F - 43.0 ° F 55% 29.73 pul 10.0 mi Sin viento Sin viento - N/A   Parcialmente nublado
10:53 PM 57.9 ° F - 42.1 ° F 56% 29.72 pul 10.0 mi ENE 3.5 mph - N/A   Nublado
11:53 PM 57.0 ° F - 41.0 ° F 55% 29.70 pul 10.0 mi ENE 5.8 mph - N/A   Nublado